Showing default

COSMOS 2447 (GLONASS), 33466

Orbit data source: Space-Track

COSMOS 2447 (GLONASS), 33466 is a Commonwealth of Independent States-origin payload satellite in MEO that was launched on Thu, 25 Dec 2008 UTC via a PROTON-M/DM-2 launch vehicle from the Tyuratam Missile And Space Complex (TTMTR). Payload-class satellites include a variety of spacecraft equipped with specific instruments for various scientific and technological missions. These include communications satellites like Starlink; space stations such as the ISS; scientific satellites like the Hubble; Earth observation satellites from companies like Planet Labs, Umbra, and HawkEye 360; GPS; miniature CubeSats for education and research; and military/defense satellites.

Loading next visibility...
Identifier
33466, 2008-067A
Orbit
MEO
Country
Flag of CISCIS
Related business
Manufacturer
Resehetnev ISS
Mission
Non-operational Defense Navigation
Bus & Motor
URAGAN, Unknown motor
Mass
1,450 kg wet, ~1,200 kg dry
Launch date (UTC)
2008-12-25 (17 years ago)
Launch vehicle
PROTON-M/DM-2
Launch site
Tyuratam Missile And Space Complex (TTMTR)
Object type
Payload
Rocket body
Debris
Shape & HBR
Cyl + 1 Ant + 2 Pan, 3.9 m
Radar Cross Section
8.467 m², Large (>1 m²)

Expand to show TLE details & history
Last TLE update: 2 days ago

TLE from 2 days ago
0 COSMOS 2447 (GLONASS)
1 33466U 08067A   25303.33495483  .00000042  00000-0  00000-0 0  9991
2 33466  64.6807  77.2603 0006552 245.4773 112.9861  2.13107501131069
Epoch: 2025-10-30T08:02Z
TLE epoch observation values (Epoch: 2025-10-30T08:02:20.097Z)
Latitude
-1.33043°
Longitude
-82.86009°
Altitude
19,136.722 km
Speed
3.952 km/s
True Right ascension
05h 06m 28s
True Declination
-1° 19' 42"
Sunlit
Object was in daylight at epoch
Visualization orbit readout
Latitude
Unknown
Longitude
Unknown
Altitude
Unknown
Speed
Unknown
Apparent Right ascension
Unknown
Apparent Declination
Unknown
Sunlit
N/A
Visualization observer readout
Local Sidereal Time
11:55:25
Azimuth
Unknown
Elevation
Unknown
Doppler factor
Unknown
Orbital elements
Apogee altitude
19,145.787 km
Perigee altitude
19,112.362 km
Semi-major axis
25,507.211 km
Eccentricity
0.00066
Inclination
64.6807°
RAAN
77.2603°
Arg. of periapsis
245.4773°
True anomaly
113.0552°
Mean anomaly
112.9861°
Eccentric anomaly
113.02065°
Mean motion
0.53278 °/min
Orbital period
675.7 mins
BSTAR
0
Loading maneuver chart data...
Computing Atmospheric mass density...
Loading historical data...
Loading historical data...
Loading historical data...
Loading historical data...
Loading historical data...
Loading historical data...
Loading historical data...

Documentation

Showing up to 5 results
|